Home   Weather   Mamoutzou   Past weeks

Flag for Mayotte Past Weather in Mamoutzou, Mayotte — Yesterday and Last 2 Weeks

Now
73 °F

Mild.


Feels Like: 73 °F
Forecast: 75 / 80 °F
Wind: 3 mph from North

Location: Dzaoudzi / Pamanzi Mayotte

Current Time: Oct 2, 2016 at 1:20:22 AM

Latest Report: Oct 2, 2016 at 1:00 AM


Visibility: N/A

Pressure: 29.89 "Hg

Humidity: 83%

Dew Point: 68 °F

Location of MamoutzouLocation

Past Weather in Mamoutzou — Graph

°F

Mamoutzou Temperature Yesterday

Maximum temperature yesterday: 88 °F (at 12:30 PM)
Minimum temperature yesterday: 72 °F (at 4:00 AM)
Average temperature yesterday: 79 °F

High & Low Weather Summary for the Past Weeks

 TemperatureHumidityPressure
High88 °F (Oct 1, 12:30 PM)94% (Sep 21, 3:00 AM)30.12 "Hg (Sep 21, 3:00 AM)
Low68 °F (Sep 20, 12:30 AM)49% (Oct 1, 12:30 PM)29.89 "Hg (Oct 1, 1:30 AM)
Average78 °F71%30.02 "Hg
* Reported Sep 17 12:00 AM — Oct 2 12:00 AM, Mamoutzou, Weather by CustomWeather, © 2016

Note: Actual official high and low records may vary slightly from our data, if they occured in-between our weather recording intervals... More about our weather records

Advertising

Mamoutzou Weather History for the Previous 24 Hours

Scroll right to see more
 ConditionsComfort  
Time TempWeatherWind HumidityBarometerVisibility
12:00 AM
Sun, Oct 2
73 °FMild.2 mph83%29.92 "HgN/A
11:30 PM
Sat, Oct 1
73 °FMild.3 mph83%29.92 "HgN/A
11:00 PM75 °FMild.3 mph78%29.95 "HgN/A
10:30 PM75 °FMild.2 mph83%29.95 "HgN/A
10:00 PM77 °FPassing clouds.3 mph79%29.95 "HgN/A
9:30 PM77 °FPassing clouds.5 mph79%29.95 "HgN/A
9:00 PM77 °FPassing clouds.5 mph79%29.95 "HgN/A
8:30 PM79 °FOvercast.5 mph74%29.92 "HgN/A
8:00 PM77 °FPassing clouds.3 mph74%29.92 "HgN/A
7:30 PM79 °FWarm.7 mph74%29.92 "HgN/A
7:00 PM79 °FPassing clouds.6 mph74%29.92 "HgN/A
6:30 PM79 °FWarm.7 mph70%29.92 "HgN/A
6:04 PM79 °FPassing clouds.7 mph70%29.89 "HgN/A
5:30 PM81 °FScattered clouds.6 mph66%29.89 "HgN/A
5:00 PM81 °FPartly sunny.6 mph66%29.89 "HgN/A
4:30 PM81 °FPartly sunny.9 mph66%29.89 "HgN/A
4:06 PM82 °FPartly sunny.7 mph62%29.89 "HgN/A
3:30 PM82 °FScattered clouds.9 mph58%29.89 "HgN/A
3:04 PM84 °FScattered clouds.10 mph58%29.89 "HgN/A
2:40 PM84 °FScattered clouds.10 mph55%29.89 "HgN/A
2:00 PM86 °FScattered clouds.10 mph55%29.92 "HgN/A
1:30 PM82 °FPassing clouds.2 mph58%29.92 "HgN/A
1:00 PM84 °FPassing clouds.5 mph55%29.92 "HgN/A
12:30 PM88 °FPassing clouds.8 mph49%29.92 "HgN/A
12:00 PM84 °FPassing clouds.8 mph55%29.95 "HgN/A
11:30 AM86 °FPassing clouds.8 mph52%29.95 "HgN/A
11:00 AM84 °FPassing clouds.8 mph55%29.95 "HgN/A
10:30 AM84 °FPassing clouds.8 mph62%29.95 "HgN/A
10:00 AM84 °FPassing clouds.6 mph62%29.95 "HgN/A
9:30 AM82 °FPassing clouds.7 mph66%29.98 "HgN/A
9:00 AM82 °FPassing clouds.5 mph66%29.98 "HgN/A
8:30 AM82 °FPassing clouds.5 mph66%29.98 "HgN/A
8:00 AM81 °FPassing clouds.3 mph70%29.98 "HgN/A
7:30 AM77 °FPassing clouds.2 mph79%29.98 "HgN/A
7:00 AM75 °FPassing clouds.2 mph89%29.95 "HgN/A
6:30 AM73 °FPassing clouds.6 mph94%29.95 "HgN/A
6:00 AM73 °FPassing clouds.5 mph89%29.92 "HgN/A
5:30 AM73 °FPassing clouds.2 mph89%29.92 "HgN/A
5:00 AM73 °FMild.6 mph89%29.92 "HgN/A
4:30 AM73 °FPassing clouds.7 mph94%29.92 "HgN/A
4:00 AM72 °FMild.2 mph94%29.89 "HgN/A
3:30 AM73 °FMild.2 mph89%29.89 "HgN/A
3:00 AM73 °FMild.1 mph89%29.89 "HgN/A
2:30 AM73 °FMild.3 mph89%29.89 "HgN/A
2:00 AM75 °FMild.5 mph89%29.89 "HgN/A
1:30 AM75 °FMild.5 mph89%29.89 "HgN/A
1:00 AM75 °FMild.5 mph83%29.92 "HgN/A
Weather by CustomWeather, © 2016

See weather overviewHow to use our weather pages